Retour au catalogue

STARLINK-31851

ActifCommunicationsVLEO
NORAD 59844·PAYLOAD·🇺🇸 United States

Lancé May 23, 2024 depuis Cape Canaveral Space Force Station

Loading…

Prochains Passages (prochaines 24 heures)

TLE

FraisSource: CelesTrak SupGP

Époque: Sep 14, 2026, 22:38 UTC

1 59844C 24097K   26257.94354167  .00028594  00000+0  10357-2 0  2575
2 59844  43.0009 285.3906 0001598 264.7443  60.4057 15.27562918    13

Suivez STARLINK-31851 en temps réel avec AllMySat

Download on the App Store